sat.trackr.live / text

‹ back to catalog

ONEWEB-0657

NORAD 55818 · 2023-029Y

PAYLOAD ACTIVE UNKNOWN

§ Identity

Operator
Country
UK
Launch date
2023-03-09
Launch site
AFETR
Launch vehicle
Mass (kg)
RCS (m²)

Purposes: comms

External: N2YO · Heavens-Above · Gunter

§ Orbital elements

Epoch: 2026-09-20T01:42:51.996096Z

Period
109.11 min
Inclination
87.9104°
Eccentricity
0.0002354
Mean motion
13.19726120 rev/d
Perigee alt
1,184.0 km
Apogee alt
1,187.5 km
Semi-major
7,563.9 km
B*
-3.2697e-4
RAAN
286.0678°
Arg perigee
122.0342°
Mean anomaly
238.1019°
Rev number
17,142

§ Raw data

ONEWEB-06571 55818U 23029Y   26263.07143514 -.00000118  00000+0 -32697-3 0  99982 55818  87.9104 286.0678 0002354 122.0342 238.1019 13.19726120171424

JSON: /api/v1/satellites/55818 · /tle

For live sub-satellite position, see the globe view (requires WebGL).

§ Visibility from observer

Set your observer location to see the next 7 days of passes ≥ 10°. The values pass through the URL so the page stays shareable.

No JS? Fill the form by hand. The geolocation button needs JavaScript.